Weather History for Dayton Wright, OH

Change the Weather History Date:

Sunday, March 9, 2014

  Actual Average (KFFO) Record (KFFO)
Temperature  
Mean Temperature 36 °F -  
Max Temperature 45 °F 43 °F 65 °F (2007)
Min Temperature 28 °F 24 °F 1 °F (2008)
Degree Days  
Heating Degree Days 28    
Moisture  
Dew Point 26 °F    
Average Humidity 70    
Maximum Humidity 89    
Minimum Humidity 42    
Precipitation  
Precipitation 0.00 in - - ()
Sea Level Pressure  
Sea Level Pressure 30.16 in    
Wind  
Wind Speed 8 mph (WNW)    
Max Wind Speed 14 mph    
Max Gust Speed -    
Visibility 7 miles    
Events      
Averages and records for this station are not official NWS values.
T = Trace of Precipitation, MM = Missing Value Source: NWS Daily Summary

Daily Weather History Graph

Daily Weather History Graph

Search for Another Location

Airport:

Trip Planner

Search our weather history database for the weather conditions in past years. The results will help you decide how hot, cold, wet, or windy it might be!

Date:

Astronomy

Mar. 09, 2014 Rise Set
Actual Time 7:57 AM EDT 7:37 PM EDT
Civil Twilight 7:30 AM EDT 8:04 PM EDT
Nautical Twilight 6:59 AM EDT 8:35 PM EDT
Astronomical Twilight 6:28 AM EDT 9:07 PM EDT
Moon 1:30 PM EDT (3/9) 3:21 AM EDT (3/9)
Length of Visible Light 12h 33m
Length of Day
11h 39m
First Quarter, 61% of the Moon is Illuminated
Mar 9
First Quarter
Mar 16
Full
Mar 23
Last Quarter
Mar 30
New
Apr 7
First Quarter

Hourly Weather History & Observations

Time (EDT) Temp. Windchill Dew Point Humidity Pressure Visibility Wind Dir Wind Speed Gust Speed Precip Events Conditions
12:23 AM 33.1 °F 24.9 °F 30.0 °F 89% 30.15 in 3.0 mi NNW 10.4 mph - N/A   Overcast
12:41 AM 33.1 °F 25.5 °F 30.0 °F 89% 30.16 in 4.0 mi NNW 9.2 mph - N/A   Overcast
12:50 AM 33.8 °F 27.0 °F 30.2 °F 87% 30.16 in 4.0 mi NNW 8.1 mph - N/A   Overcast
12:53 AM 33.1 °F 24.9 °F 30.0 °F 89% 30.17 in 4.0 mi NNW 10.4 mph - N/A   Overcast
12:57 AM 33.1 °F 24.9 °F 30.0 °F 89% 30.16 in 4.0 mi NNW 10.4 mph - N/A   Overcast
1:53 AM 32.0 °F 24.8 °F 28.9 °F 88% 30.19 in 4.0 mi NNW 8.1 mph - N/A   Overcast
3:25 AM 32.0 °F 24.8 °F 28.9 °F 88% 30.17 in 3.0 mi NNW 8.1 mph - N/A   Overcast
3:42 AM 32.0 °F 25.6 °F 28.9 °F 88% 30.17 in 4.0 mi NNW 6.9 mph - N/A   Overcast
3:53 AM 32.0 °F 24.8 °F 28.9 °F 88% 30.19 in 4.0 mi NNW 8.1 mph - N/A   Overcast
4:45 AM 30.9 °F 23.5 °F 28.0 °F 89% 30.17 in 5.0 mi NNW 8.1 mph - N/A   Overcast
4:53 AM 30.9 °F 23.5 °F 28.0 °F 89% 30.19 in 5.0 mi NNW 8.1 mph - N/A   Overcast
5:51 AM 30.2 °F 25.4 °F 26.6 °F 86% 30.19 in 6.0 mi NNW 4.6 mph - N/A   Overcast
5:53 AM 30.9 °F 25.2 °F 27.0 °F 85% 30.20 in 6.0 mi NW 5.8 mph - N/A   Overcast
6:53 AM 30.0 °F 22.4 °F 26.1 °F 85% 30.23 in 6.0 mi NNW 8.1 mph - N/A   Overcast
7:53 AM 30.0 °F 22.4 °F 25.0 °F 82% 30.25 in 6.0 mi NW 8.1 mph - N/A   Haze
8:53 AM 28.9 °F 22.8 °F 24.1 °F 82% 30.27 in 5.0 mi NW 5.8 mph - N/A   Haze
9:53 AM 30.0 °F 25.2 °F 25.0 °F 82% 30.28 in 6.0 mi NW 4.6 mph - N/A   Haze
10:53 AM 33.1 °F 28.7 °F 25.0 °F 72% 30.28 in 7.0 mi Variable 4.6 mph - N/A   Partly Cloudy
11:53 AM 35.1 °F 29.3 °F 24.1 °F 64% 30.27 in 8.0 mi South 6.9 mph - N/A   Scattered Clouds
12:03 PM 34.0 °F 28.0 °F 24.1 °F 67% 30.23 in 8.0 mi West 6.9 mph - N/A   Mostly Cloudy
12:12 PM 35.1 °F 29.3 °F 23.0 °F 61% 30.23 in 9.0 mi Variable 6.9 mph - N/A   Scattered Clouds
12:53 PM 37.0 °F 31.0 °F 24.1 °F 59% 30.23 in 9.0 mi SW 8.1 mph - N/A   Partly Cloudy
1:53 PM 39.9 °F 34.5 °F 25.0 °F 55% 30.21 in 10.0 mi WSW 8.1 mph - N/A   Clear
2:53 PM 41.0 °F 35.2 °F 24.1 °F 51% 30.17 in 10.0 mi SW 9.2 mph - N/A   Clear
3:53 PM 42.1 °F 36.6 °F 25.0 °F 51% 30.14 in 10.0 mi West 9.2 mph - N/A   Clear
4:53 PM 43.0 °F 36.0 °F 21.9 °F 43% 30.12 in 10.0 mi SW 13.8 mph - N/A   Clear
5:53 PM 45.0 °F 41.2 °F 24.1 °F 44% 30.09 in 10.0 mi Variable 6.9 mph - N/A   Clear
6:53 PM 45.0 °F 41.2 °F 23.0 °F 42% 30.08 in 10.0 mi WSW 6.9 mph - N/A   Clear
7:53 PM 43.0 °F 39.5 °F 21.9 °F 43% 30.07 in 10.0 mi West 5.8 mph - N/A   Clear
8:53 PM 41.0 °F 37.1 °F 21.9 °F 47% 30.06 in 10.0 mi WSW 5.8 mph - N/A   Clear
9:53 PM 39.0 °F 35.7 °F 21.9 °F 50% 30.05 in 10.0 mi SSW 4.6 mph - N/A   Clear
10:53 PM 39.9 °F 33.9 °F 23.0 °F 51% 30.03 in 10.0 mi SSW 9.2 mph - N/A   Clear
11:53 PM 39.9 °F 34.5 °F 23.0 °F 51% 30.01 in 10.0 mi SSW 8.1 mph - N/A   Clear
12:53 AM 39.0 °F 32.8 °F 24.1 °F 55% 30.00 in 10.0 mi SW 9.2 mph - N/A   Clear